Pompano Beach, FL

11:21 AM EDT on August 28, 2016 (GMT -0400)
Pompano Beach

Weather History for KPMP - May, 2013

Change the Weather History Date:

Friday, May 3, 2013

  Actual Average Record
Temperature  
Mean Temperature 76 °F -  
Max Temperature 84 °F 85 °F 91 °F (1985)
Min Temperature 68 °F 69 °F 58 °F (1955)
Cooling Degree Days 11    
Growing Degree Days 26 (Base 50)    
Moisture  
Dew Point 70 °F    
Average Humidity 89    
Maximum Humidity 100    
Minimum Humidity 49    
Precipitation  
Precipitation 1.03 in - - ()
Sea Level Pressure  
Sea Level Pressure 29.76 in    
Wind  
Wind Speed 9 mph (SW)    
Max Wind Speed 15 mph    
Max Gust Speed 18 mph    
Visibility 8 miles    
Events Rain , Thunderstorm    
Averages and records for this station are not official NWS values.
T = Trace of Precipitation, MM = Missing Value Source: NWS Daily Summary

Daily Weather History Graph

Daily Weather History Graph

Search for Another Location

Airport or City:

Trip Planner

Search our weather history database for the weather conditions in past years. The results will help you decide how hot, cold, wet, or windy it might be!

Date:

Astronomy

May. 03, 2013 Rise Set
Actual Time 6:41 AM EDT 7:53 PM EDT
Civil Twilight 6:16 AM EDT 8:18 PM EDT
Nautical Twilight 5:47 AM EDT 8:47 PM EDT
Astronomical Twilight 5:18 AM EDT 9:17 PM EDT
Moon 2:28 AM EDT (5/3) 2:20 PM EDT (5/3)
Length of Visible Light 14h 01m
Length of Day
13h 12m
Last Quarter, 37% of the Moon is Illuminated
May 3
Last Quarter
May 9
New
May 18
First Quarter
May 25
Full
May 31
Last Quarter

Hourly Weather History & Observations

Time (EDT) Temp. Heat Index Dew Point Humidity Pressure Visibility Wind Dir Wind Speed Gust Speed Precip Events Conditions
12:45 AM 73.4 °F - 71.6 °F 94% 29.80 in 10.0 mi ESE 9.2 mph - 0.00 in   Mostly Cloudy
12:53 AM 73.9 °F - 72.0 °F 93% 29.80 in 10.0 mi East 10.4 mph - 0.00 in   Mostly Cloudy
1:15 AM 75.2 °F - 73.4 °F 94% 29.78 in 10.0 mi SE 13.8 mph - N/A   Overcast
1:46 AM 75.2 °F - 71.6 °F 89% 29.76 in 10.0 mi South 6.9 mph - N/A   Mostly Cloudy
1:53 AM 73.9 °F - 72.0 °F 93% 29.76 in 10.0 mi South 6.9 mph - N/A   Scattered Clouds
2:53 AM 71.1 °F - 71.1 °F 100% 29.75 in 10.0 mi WSW 8.1 mph - N/A   Clear
3:48 AM 69.8 °F - 69.8 °F 100% 29.75 in 10.0 mi SSW 6.9 mph - N/A   Scattered Clouds
4:07 AM 69.8 °F - 69.8 °F 100% 29.76 in 10.0 mi SW 6.9 mph - N/A   Overcast
4:53 AM 69.1 °F - 69.1 °F 100% 29.76 in 10.0 mi WSW 10.4 mph - N/A   Mostly Cloudy
5:53 AM 68.0 °F - - N/A% 29.78 in 6.0 mi WSW 8.1 mph - N/A   Haze
6:53 AM 68.0 °F - - N/A% 29.78 in 9.0 mi SW 8.1 mph - N/A   Overcast
7:37 AM 69.8 °F - 69.8 °F 100% 29.78 in 10.0 mi SW 8.1 mph - N/A   Scattered Clouds
7:53 AM 70.0 °F - 70.0 °F 100% 29.78 in 10.0 mi WSW 8.1 mph - N/A   Clear
8:53 AM 72.0 °F - 70.0 °F 93% 29.79 in 10.0 mi WSW 8.1 mph - N/A   Scattered Clouds
9:53 AM 75.0 °F - 69.1 °F 82% 29.80 in 10.0 mi WSW 10.4 mph - N/A   Partly Cloudy
10:53 AM 78.1 °F - 69.1 °F 74% 29.79 in 10.0 mi WSW 10.4 mph - N/A   Scattered Clouds
11:53 AM 80.1 °F 82.1 °F 66.0 °F 62% 29.80 in 10.0 mi WSW 10.4 mph 16.1 mph N/A   Partly Cloudy
12:53 PM 82.0 °F 83.8 °F 64.9 °F 56% 29.78 in 10.0 mi West 10.4 mph - N/A   Scattered Clouds
1:53 PM 84.0 °F 84.9 °F 63.0 °F 49% 29.76 in 10.0 mi Variable 4.6 mph 16.1 mph N/A   Partly Cloudy
2:53 PM 82.0 °F 84.9 °F 68.0 °F 62% 29.74 in 10.0 mi SE 9.2 mph - N/A   Partly Cloudy
3:53 PM 82.0 °F 85.5 °F 69.1 °F 65% 29.71 in 10.0 mi SSE 10.4 mph 18.4 mph N/A   Clear
4:53 PM 78.1 °F - 71.1 °F 79% 29.71 in 5.0 mi SSE 13.8 mph - 0.02 in Rain Rain
5:20 PM 77.0 °F - 73.4 °F 89% 29.71 in 3.0 mi South 9.2 mph - 0.16 in Rain , Thunderstorm Thunderstorms and Rain
5:42 PM 73.4 °F - 71.6 °F 94% 29.72 in 1.2 mi WSW 11.5 mph - 0.40 in Rain , Thunderstorm Heavy Thunderstorms and Rain
5:53 PM 71.1 °F - 71.1 °F 100% 29.73 in 1.2 mi WSW 15.0 mph - 0.57 in Rain , Thunderstorm Heavy Thunderstorms and Rain
6:11 PM 71.6 °F - 71.6 °F 100% 29.73 in 2.5 mi SW 9.2 mph - 0.16 in Rain , Thunderstorm Heavy Thunderstorms and Rain
6:29 PM 71.6 °F - 69.8 °F 94% 29.71 in 7.0 mi South 4.6 mph - 0.21 in Rain , Thunderstorm Light Thunderstorms and Rain
6:53 PM 73.9 °F - 70.0 °F 87% 29.71 in 10.0 mi SW 4.6 mph - 0.21 in Thunderstorm Thunderstorm
7:00 PM 73.4 °F - 69.8 °F 88% 29.70 in 10.0 mi SSW 4.6 mph - N/A   Mostly Cloudy
7:53 PM 75.0 °F - 72.0 °F 90% 29.72 in 10.0 mi Calm Calm - N/A   Scattered Clouds
8:53 PM 73.9 °F - 73.0 °F 97% 29.76 in 10.0 mi NW 4.6 mph - 0.00 in   Overcast
9:19 PM 71.6 °F - 71.6 °F 100% 29.76 in 2.5 mi West 15.0 mph - 0.13 in Rain Heavy Rain
9:28 PM 71.6 °F - 71.6 °F 100% 29.76 in 2.0 mi WNW 6.9 mph - 0.21 in Rain Heavy Rain
9:37 PM 71.6 °F - 71.6 °F 100% 29.76 in 5.0 mi WNW 9.2 mph - 0.22 in Rain Rain
9:53 PM 71.1 °F - 71.1 °F 100% 29.76 in 10.0 mi WNW 3.5 mph - 0.23 in Rain Light Rain
10:53 PM 71.1 °F - 71.1 °F 100% 29.75 in 10.0 mi Calm Calm - 0.00 in   Clear
11:53 PM 71.1 °F - 71.1 °F 100% 29.75 in 10.0 mi Calm Calm - N/A   Clear